Regional Weather Roundup
Issued by NWS Pendleton, OR

Home | Current Version | Previous Version | Text Only | Print | Product List | Glossary On
Versions: 1 2 3 4 5 6 7 8 9 10 11 12 13 14 15 16 17 18 19 20 21 22 23 24 25 26 27 28 29 30 31 32 33 34 35 36 37 38 39 40 41 42 43 44 45 46 47 48 49 50
000
ASUS46 KPDT 220625
RWRPDT
PENDLETON REGIONAL WEATHER ROUNDUP
NATIONAL WEATHER SERVICE PENDLETON OREGON
1000 PM PST SUN DEC 21 2014

NOTE: FAIR INDICATES FEW OR NO CLOUDS BELOW 12,000 FEET WITH NO
SIGNIFICANT WEATHER AND/OR OBSTRUCTIONS TO VISIBILITY.

# INDICATES UNOFFICIAL STATION AND DATA

WAZ520-220710-
EAST SLOPES OF WASHINGTON CASCADES

CITY            SKY/WX      TMP DP  RH  WIND    PRES   REMARKS
#BULLFROG 2SW   N/A         41  40  96  S2      27.64R
#BUMPING DAM    N/A         34  N/A N/A SW3     N/A
#CLE ELUM HS    N/A         40  39  96  CALM    30.01R
#CLE ELUM 2NW   N/A         38  38  100 N1      N/A
#CLE ELUM LAKE  N/A         37  36  96  SW2     30.05R
#CLIFFDEL 2NW   N/A         36  35  96  CALM    N/A
#GLENWOOD       N/A         43  40  89  S7      30.08R
#MANASTASH CYN  N/A         38  33  82  CALM    30.00R
#NELSON         N/A         39  38  96  CALM    30.11R
#NILE           N/A         35  35  100 CALM    29.35R
#SNOWDEN        N/A         43  38  82  W2      N/A
#TEANAWAY 4NE   N/A         39  39  100 N2      N/A
#TROUT LAKE HS  N/A         42  42  100 W2      N/A
#TROUT LAKE 1NE N/A         41  40  96  CALM    30.11F
$$

WAZ521-220710-
SIMCOE HIGHLANDS

CITY            SKY/WX      TMP DP  RH  WIND    PRES   REMARKS
#BICKLETON HS   N/A         40  30  67  W7      34.25S
#CENTERVILLE 1SWN/A         44  39  82  SW6     30.06R
#GOLDENDALE     N/A         45  43  93  S6      N/A
#GOLDENDALE 1NE N/A         46  37  71  S3      N/A
#GOLDENDALE 1S  N/A         45  40  82  SW6     30.05R
#GOLDENDALE 5WNWN/A         45  39  79  W13     30.05R WCI 39
#GOODNOE HILLS  N/A         45  40  82  SW3     N/A
#LYLE 6NE       N/A         44  41  89  SW6     30.06S
$$

WAZ026-220710-
KITTITAS VALLEY

CITY            SKY/WX      TMP DP  RH  WIND    PRES   REMARKS
ELLENSBURG AP   CLOUDY      45  36  70  NW13G30 30.03S WCI 39
6HR MIN TEMP:   41; 6HR MAX TEMP:   48; 6HR PCP:  TRACE;

#ELLENSBURG CWU N/A         44  37  76  NW13    30.00S WCI 38
#ELLENSBURG 3NE N/A         42  38  86  NW8     30.03R
#ELLENSBURG     N/A         46  40  79  NW7     N/A
#ELLENSBURG 1E  N/A         44  37  76  NW2     N/A
#KITTITAS 4N    N/A         42  36  79  NW9     30.07R
#KITTITAS 3S    N/A         43  38  82  W2      30.03S
#THORP 6N       N/A         39  37  92  N10     30.08R
$$

WAZ027-220710-
YAKIMA VALLEY

CITY            SKY/WX      TMP DP  RH  WIND    PRES   REMARKS
YAKIMA-VAGABOND PTCLDY      41  34  76  S3      30.06R
#DONALD 2NE     N/A         49  33  54  CALM    28.90S
#GRANDVIEW      N/A         39  35  85  CALM    30.09R
#MABTON         N/A         45  38  76  CALM    30.06R
#MOXEE 2E       N/A         38  36  92  S8      29.93R
#NACHES 2SW     N/A         43  37  79  W2      29.90S
#OUTLOOK DOT    N/A         N/A N/A N/A E5      N/A
#SELAH 8E       N/A         36  34  92  S6      N/A
#TERRACE HTS    N/A         40  36  85  CALM    30.04R
#WAPATO 4NE     N/A         49  33  54  CALM    28.90S
#WEST VALLEY    N/A         48  36  63  NW1     30.05R
#W YAKIMA       N/A         47  36  65  W1      30.06R
#WHITE SWAN 5E  N/A         46  36  68  W3      30.06R
#WILEY CITY 3W  N/A         41  20  43  CALM    29.92S
$$

WAZ028-220710-
LOWER COLUMBIA BASIN...WASHINGTON

CITY            SKY/WX      TMP DP  RH  WIND    PRES   REMARKS
PASCO           MOCLDY      50  43  77  SW14    30.05S
6HR MIN TEMP:   49; 6HR MAX TEMP:   53;

PROSSER AWOS    N/A         37  37  100 NW2     30.10R
RICHLAND AWOS   CLOUDY      48  41  77  S6      30.06S
#BASIN CITY 5SW N/A         46  40  79  NW2     30.06R
#BENTON CITY    N/A         45  39  79  W7      29.96R
#CONNELL 5N     N/A         44  39  82  NW9     30.03S
#CONNELL 5NW    N/A         44  38  79  W8      30.00R
#ELTOPIA        N/A         46  42  86  CALM    30.02R
#ELTOPIA 6NW    N/A         45  40  82  SW3     29.01R
#KAHLOTUS       N/A         46  39  76  NW26G35 30.02R WCI 37
#KENNEWICK      N/A         41  40  96  S2      27.64R
#KENNEWICK 3S   N/A         49  44  83  W7      30.04S
#PASCO-BROADMOORN/A         50  41  71  W3      29.96F
#PATERSON       N/A         49  43  80  W7      30.05F
#PROSSER        N/A         50  35  56  S6      30.06R
#SAGEMOOR 2W    N/A         48  44  86  SW3     29.90R
#TOUCHET 2S     N/A         51  43  74  SW12    30.04R
#WEST PASCO     N/A         51  43  74  W6      30.06S
$$

WAZ029-220710-
FOOTHILLS OF THE BLUES...WASHINGTON

CITY            SKY/WX      TMP DP  RH  WIND    PRES   REMARKS
WALLA WALLA AP  CLOUDY      49  41  74  SW10    30.06S
6HR MIN TEMP:   48; 6HR MAX TEMP:   51;

#COLLEGE PLACE  N/A         50  40  68  CALM    30.09R
#DAYTON SCHOOL  N/A         47  38  71  S8      30.06S
#LOWDEN 2SE     N/A         51  44  77  W7      30.04R
#PLEASANT VIEW 1N/A         43  41  93  SW12    30.08R WCI 37
#PRESCOTT       N/A         48  43  83  SW2     30.04S
#SUDBURY        N/A         50  N/A N/A CALM    N/A
#WHITMAN COLLEGEN/A         50  42  74  S3      30.11S
#WAITSBURG 5S   N/A         45  42  89  S12     30.15S WCI 39
#WALLA WALLA 5E N/A         47  42  83  SW12    N/A    WCI 42
#WALLA WALLA U  N/A         51  43  74  SW2     30.06S
#WHITMAN MISSIONN/A         51  44  77  W8      30.07S
$$

WAZ030-220710-
BLUE MOUNTAINS...WASHINGTON

CITY            SKY/WX      TMP DP  RH  WIND    PRES   REMARKS
#DIXIE 5SE      N/A         40  37  89  SW14    29.98R WCI 32
#SKI BLUEWOOD   N/A         35  32  89  N7      30.09R
$$

ORZ009-041-WAZ024-220710-
COLUMBIA RIVER GORGE

CITY            SKY/WX      TMP DP  RH  WIND    PRES   REMARKS
HOOD RIVER AP   LGT RAIN    46  46  100 CALM    30.13R
THE DALLES AP   MOCLDY      51  44  77  N8      30.10R
6HR MIN TEMP:   50; 6HR MAX TEMP:   53; 6HR PCP:  TRACE;

#ARLINGTON AIRPON/A         48  43  83  W12     29.82F WCI 43
#ARLINGTON HS   N/A         51  42  71  NW8     30.00F
#CELILO DOT     N/A         51  41  68  SW3     N/A
#LYLE           N/A         50  48  93  W9      30.12R
#MARYHILL 2W    N/A         48  47  96  S3      N/A
#MOSIER 1S      N/A         48  46  93  W8      30.12R
#MURDOCK        N/A         52  49  89  NW14    30.11S
#RUFUS DOT      N/A         50  40  68  CALM    N/A

$$

ORZ510-220710-
NORTH CENTRAL OREGON

CITY            SKY/WX      TMP DP  RH  WIND    PRES   REMARKS
#CHENOWITH 1W   N/A         44  44  100 W25     N/A    WCI 35
#COW CYN RST AREN/A         41  36  82  W10     N/A
#DUFUR 9E       N/A         44  39  82  W7      30.14R
#GRASS VALLEY   N/A         41  39  93  S2      N/A
#GRASS VALLEY 1SN/A         40  37  89  W1      30.15R
#KENT DOT       N/A         42  33  70  SW10    N/A
#MAUPIN SCHOOL  N/A         49  39  68  SW8     30.11S
#MORO SCHOOL    N/A         44  43  96  W5      30.09R
#SHANIKO 4NW    N/A         39  36  89  W15     30.08R WCI 31
#TYGH VALLEY 2NEN/A         47  40  76  W1      30.11R
#WAPANITIA AIRPON/A         45  39  79  SW2     30.12R
#WASCO DOT      N/A         47  39  74  W5      N/A
#WASCO AIRPORT  N/A         47  40  76  W15     N/A    WCI 41
#WASCO 5NE      N/A         45  41  86  W7      30.09R
$$

ORZ511-220710-
CENTRAL OREGON

CITY            SKY/WX      TMP DP  RH  WIND    PRES   REMARKS
BEND AIRPORT    CLOUDY      39  39  100 CALM    30.13F
MADRAS AIRPORT  PTCLDY      43  41  93  E5      30.13F
PRINEVILLE AP   CLOUDY      41  39  93  SW3     30.12F
REDMOND AIRPORT MOCLDY      41  40  96  CALM    30.12S
6HR MIN TEMP:   41; 6HR MAX TEMP:   44; 6HR PCP:  0.04;

#BEND 1SW       N/A         40  39  96  CALM    N/A
#BEND-AWBREY    N/A         41  40  96  E3      30.11F
#BEND-KIM LN    N/A         40  39  96  CALM    30.09F
#CROOKED RVR RANN/A         44  40  86  W41G60  30.11F WCI 32
#CULVER         N/A         45  39  79  S3      30.07F
#LAKE BILLY CHINN/A         45  25  45  S3      30.17F
#POWELL BUTTE 3EN/A         43  40  89  SW3     N/A
#POWELL BUTTE   N/A         42  38  86  CALM    29.74F
#PRINEVILLE 3N  N/A         41  40  96  E1      30.07F
#WARM SPRINGS   N/A         44  43  96  CALM    30.09F


ORZ509-220710-
EAST SLOPES OF OREGON CASCADES

CITY            SKY/WX      TMP DP  RH  WIND    PRES   REMARKS
#BLUE BOX PASS  N/A         36  -13 11  CALM    N/A
#BLACK BUTTE RNCN/A         40  40  100 CALM    30.12F
#CAMP SHERMAN   N/A         40  39  96  CALM    30.16F
#LA PINE DOT    N/A         43  42  96  SW3     N/A
#LA PINE 4NW    N/A         43  40  89  W1      30.15F
#LAVA BUTTE DOT N/A         42  41  96  S2      N/A
#MT BACHELOR-MIDN/A         32  32  100 E26G41  N/A    WCI 18
#SISTERS AIRPOR N/A         41  41  100 N2      30.17S
#SISTERS ODOT   N/A         41  N/A N/A NW1     N/A
#SISTERS 1NW    N/A         41  39  93  N6      N/A
#SISTERS 3N     N/A         40  38  92  S2      30.13F
#SUNRIVER       N/A         43  42  96  S1      29.99F
#TUMALO 3W      N/A         40  39  96  SE3     30.00F
#WANOGA BUTTE D N/A         38  37  96  NW15G26 N/A    WCI 29

$$

ORZ044-220710-
LOWER COLUMBIA BASIN...OREGON

CITY            SKY/WX      TMP DP  RH  WIND    PRES   REMARKS
HERMISTON       CLOUDY      51  41  68  SW10    30.08R
6HR MIN TEMP:   50; 6HR MAX TEMP:   54;

#BOARDMAN 8SW   N/A         50  44  80  SW13    30.07S
#ECHO 8SW       N/A         51  40  66  W12     30.05R
#IONE SCHOOL    N/A         50  37  61  S6      30.08R
#IRRIGON 4NW    N/A         52  45  77  S15     N/A
#UMATILLA SCHOOLN/A         50  47  89  E2      30.11R
#UMATILLA       N/A         52  41  66  SW7     30.04S
$$

ORZ507-220710-
NORTHERN FOOTHILLS OF THE BLUES

CITY            SKY/WX      TMP DP  RH  WIND    PRES   REMARKS
PENDLETON AIRPT CLOUDY      48  39  71  W21G29  30.06S WCI 41
6HR MIN TEMP:   48; 6HR MAX TEMP:   50;

#ADAMS 3WNW     N/A         45  40  82  SW3     30.07S
#ATHENA         N/A         46  41  83  SW2     30.09S
#CAYUSE         N/A         48  40  74  SW10    30.06S
#HELIX SCHOOL   N/A         45  41  86  W7      30.07R
#HELIX 3N       N/A         44  40  86  SW13    30.03R WCI 38
#HOLDMAN 5SE    N/A         48  42  80  W10     30.07R
#HOLDMAN 6E     N/A         45  41  86  NE8     29.88R
#M-F GROVE ELEM N/A         49  39  68  SW7     30.05S
#M-FREEWATER 5SEN/A         49  41  74  S6      30.07R
#PENDLETON DNTN N/A         51  35  54  NW3     28.88S
#PDT AQUATIC CTRN/A         52  39  61  W7      30.06S
#PENDLETON 5NE  N/A         48  41  77  W1      30.04R
#PDT SUNRIDGE   N/A         50  40  68  SW9     30.09R
#PENDLETON 7NW  N/A         48  40  74  W14     N/A    WCI 42
#PILOT ROCK     N/A         49  36  61  SW2     30.10S
#TUTUILLA       N/A         47  40  76  S7      30.08S
#UMAPINE 2E     N/A         52  44  74  SW8     30.03S
#WESTON SCHOOL  N/A         45  38  76  W5      30.05S

$$

ORZ508-220710-
SOUTHERN FOOTHILLS OF THE BLUES

CITY            SKY/WX      TMP DP  RH  WIND    PRES   REMARKS
LEXINGTON       CLOUDY      48  39  71  CALM    30.11R
#AJAX           N/A         45  34  65  S6      30.02R
#CONDON SCHOOL  N/A         42  38  86  CALM    30.05R
#CONDON 5W      N/A         43  38  82  W12     30.07R WCI 37
#FOSSIL SCHOOL  N/A         44  39  82  CALM    30.07S
#HEPPNER EOC    N/A         46  39  76  SW2     30.06R
#HEPPNER 4NE    N/A         43  38  82  W7      30.10R
#LEXINGTON 2SE  N/A         49  40  71  CALM    30.05S
#MIKKALO        N/A         45  38  76  W6      30.08R
#OLEX 4N        N/A         48  42  80  W13     30.07S WCI 43
#RUGGS 5NE      N/A         42  38  86  W6      30.27R
#RUGGS 2SW      N/A         44  38  79  W7      30.11R

$$

ORZ502-503-220710-
BLUE MOUNTAINS

CITY            SKY/WX      TMP DP  RH  WIND    PRES   REMARKS
MEACHAM         CLOUDY      40  36  85  MISG    30.05S
6HR MIN TEMP:   40; 6HR MAX TEMP:   41; 6HR PCP:  TRACE;

#BATTLE MTN DOT N/A         37  37  100 CALM    N/A
#HARDMAN 10S    N/A         37  35  92  CALM    30.23R
#HEPPNER 15SE   N/A         37  35  92  NW2     30.00R
#LADD CYN SMT   N/A         39  32  76  NW12    N/A    WCI 32
#LADD CREEK ODOTN/A         40  37  89  CALM    N/A
#LONG CREEK HS  N/A         40  40  100 CALM    30.06S
#N POWDER DOT   N/A         38  37  96  S1      N/A
#PIKES PEAK     N/A         38  37  96  SW18G26 27.99S WCI 28
#TOLLGATE       N/A         33  33  100 SW7     29.94S
#TROY SCHOOL    N/A         42  40  93  NW2     29.92R
#UKIAH          N/A         39  38  96  CALM    30.14S
#WESTON 4E      N/A         40  38  92  SW8     30.03R
$$

ORZ505-220710-
JOHN DAY BASIN

CITY            SKY/WX      TMP DP  RH  WIND    PRES   REMARKS
JOHN DAY        RAIN        41  39  93  CALM    30.11S
#JOHN DAY KJDY  N/A         43  39  86  CALM    30.22R
#DAYVILLE SCHOOLN/A         32  29  89  CALM    30.16S
#MONUMENT HS    N/A         43  40  89  CALM    30.11S
#MT. VERNON 5SE N/A         38  37  96  CALM    30.04F
#WINLOCK        N/A         41  40  96  CALM    30.17S
$$

ORZ506-220710-
OCHOCO AND JOHN DAY HIGHLANDS

CITY            SKY/WX      TMP DP  RH  WIND    PRES   REMARKS
#HORSE RIDGE DO N/A         40  38  92  N3      N/A
#KEYES SMT DOT  N/A         38  36  92  CALM    N/A
#PRAIRIE CITY   N/A         34  31  89  CALM    30.24S
#SENECA         N/A         34  N/A N/A CALM    N/A
#SENECA 9NW     N/A         33  32  96  CALM    30.12S
$$

ORZ049-220710-
GRANDE RONDE VALLEY

CITY            SKY/WX      TMP DP  RH  WIND    PRES   REMARKS
LA GRANDE       MOCLDY      43  34  70  CALM    30.05S
#COVE           N/A         42  36  79  CALM    30.03S
#COVE SCHOOL    N/A         41  38  89  CALM    30.04F
#COVE 6NW       N/A         42  37  82  CALM    30.14S
#ELGIN 3N       N/A         43  33  67  CALM    29.77S
#ELGIN 1E       N/A         45  35  68  CALM    N/A
#ISLAND CITY 4N N/A         49  48  96  CALM    30.14S
#LADD CYN DOT   N/A         43  36  76  SW9     N/A
#UNION 1S       N/A         42  38  86  E1      30.02R
$$

ORZ050-220710-
WALLOWA COUNTY

CITY            SKY/WX      TMP DP  RH  WIND    PRES   REMARKS
JOSEPH AIRPORT  CLOUDY      34  34  100 CALM    30.04F
#ENTERPRISE AP  N/A         38  34  85  N2      29.97S
#ENTERPRISE HS  N/A         38  35  89  CALM    30.04F
#IMNAHA SCHOOL  N/A         46  39  76  SW3     30.03F
#IMNAHA 10S     N/A         38  35  89  CALM    30.04S
#JOSEPH 3N      N/A         35  32  89  CALM    30.05F
#JOSEPH 3W      N/A         33  30  89  SW1     29.87F
#LOSTINE        N/A         40  34  79  CALM    29.84F
#MT HOWARD 8000 N/A         24  22  92  W3      29.94S
#PROMISE 1S     N/A         38  36  92  E2      30.16R
#SHEEP RDG 7000 N/A         26  25  96  CALM    30.07S
#WALLOWA SCHOOL N/A         40  37  89  CALM    30.99S



$$



USA.gov is the U.S. government's official web portal to all federal, state and local government web resources and services.